DEUFD EDLW-EDDG

Flight info

Callsign DEUFD
Flight time N/A
Altitude 2000
Route VFR
Aircraft SR22/L-V/N

Departure

Time N/A
Airport Dortmund Airport (EDLW)

Arrival

Time 2026-04-29 17:11
Airport Münster Osnabrück Airport (EDDG)
Time Latitude Longitude Altitude Speed Heading
2026-04-29 17:05 51.88358 7.64734 2555 ft 176 kts 13°
2026-04-29 17:05 51.89572 7.64866 2555 ft 176 kts 13°
2026-04-29 17:06 51.90799 7.65000 2539 ft 177 kts 13°
2026-04-29 17:06 51.92047 7.65139 2419 ft 183 kts 12°
2026-04-29 17:06 51.93353 7.65297 2299 ft 190 kts 13°
2026-04-29 17:06 51.94670 7.65461 2180 ft 193 kts 13°
2026-04-29 17:07 51.96014 7.65639 2057 ft 195 kts 13°
2026-04-29 17:07 51.96936 7.65765 1989 ft 195 kts 13°
2026-04-29 17:07 51.98709 7.65998 1974 ft 190 kts 13°
2026-04-29 17:07 52.00018 7.66162 1972 ft 187 kts 13°
2026-04-29 17:08 52.01305 7.66319 1972 ft 185 kts 13°
2026-04-29 17:08 52.02595 7.66474 1972 ft 184 kts 13°
2026-04-29 17:08 52.03863 7.66623 1972 ft 183 kts 13°
2026-04-29 17:08 52.05139 7.66768 1984 ft 183 kts 12°
2026-04-29 17:09 52.06390 7.66257 1966 ft 202 kts 334°
2026-04-29 17:09 52.07577 7.65114 1990 ft 190 kts 344°
2026-04-29 17:09 52.08737 7.64224 1979 ft 177 kts 343°
2026-04-29 17:09 52.09809 7.63447 1806 ft 170 kts 349°
2026-04-29 17:10 52.10941 7.62897 1477 ft 162 kts
2026-04-29 17:10 52.11884 7.63247 1246 ft 120 kts 33°
2026-04-29 17:10 52.12442 7.63977 957 ft 94 kts 61°
2026-04-29 17:10 52.12695 7.64883 644 ft 88 kts 73°
2026-04-29 17:11 52.12910 7.65879 446 ft 89 kts 70°
2026-04-29 17:11 52.13089 7.66709 239 ft 74 kts 71°
2026-04-29 17:11 52.13238 7.67434 159 ft 56 kts 73°
2026-04-29 17:11 52.13339 7.67900 157 ft 33 kts 71°
2026-04-29 17:12 52.13394 7.68189 155 ft 10 kts 90°
2026-04-29 17:12 52.13359 7.68258 155 ft 6 kts 151°
2026-04-29 17:12 52.13312 7.68287 155 ft 9 kts 158°
2026-04-29 17:12 52.13305 7.68292 155 ft 0 kts 160°
2026-04-29 17:13 52.13291 7.68304 155 ft 15 kts 156°
2026-04-29 17:14 52.13199 7.68348 155 ft 9 kts 184°
2026-04-29 17:14 52.13150 7.68279 155 ft 7 kts 182°
2026-04-29 17:14 52.13140 7.68230 154 ft 0 kts 268°